Tracking 35334 objects as of 13-Sep-2026
HD Live streaming from Space Station
objects crossing your sky now

DMSP 5D-2 F13 DEB


DMSP 5D-2 F13 DEB is no longer on orbit


NORAD ID: 40672
Int'l Code: 1995-015FL
Launch date: March 24, 1995
Source: United States (US)
Launch site: AIR FORCE WESTERN TEST RANGE (AFWTR)
Decay date: 2025-11-10

Note: This is SATELLITE DEBRIS
Your satellite tracking list
Your tracking list is empty




NASA's NSSDC Master Catalog

Two Line Element Set (TLE):
1 40672U 95015FL  25267.19905091  .00378399  00000-0  19389-1 0  9995
2 40672  98.6718 344.4636 0008315 235.1061 124.9387 15.14722333545745
Source of the keplerian elements: AFSPC